Regional Weather Roundup
Issued by NWS Cleveland, OH

Home | Current Version | Previous Version | Graphics & Text | Print | Product List | Glossary On
Versions: 1 2 3 4 5 6 7 8 9 10 11 12 13 14 15 16 17 18 19 20 21 22 23 24 25 26 27 28 29 30 31 32 33 34 35 36 37 38 39 40 41 42 43 44 45 46 47 48 49 50
000
ASUS41 KCLE 122302
RWRCLE
OHIO REGIONAL WEATHER ROUNDUP
NATIONAL WEATHER SERVICE CLEVELAND, OH
600 PM EST TUE DEC 12 2017

NOTE: "FAIR" INDICATES FEW OR NO CLOUDS BELOW 12,000 FEET WITH NO
SIGNIFICANT WEATHER AND/OR OBSTRUCTIONS TO VISIBILITY.

OHZ001>008-015>018-024>027-034-035-043-044-130000-
   NORTHWEST OHIO

CITY           SKY/WX    TMP DP  RH WIND       PRES   REMARKS
DEFIANCE       CLEAR     19   7  59 NW12      29.94  WCI   7
FINDLAY        MOCLDY    21   4  47 NW15      29.90R WCI   8
TOLEDO EXPRESS MOCLDY    19   5  54 NW10      29.91R WCI   7
TOLEDO EXEC    PTCLDY    19   6  57 NW13      29.92R WCI   6
LIMA           FLURRIES  21  13  71 W13G23    29.92R WCI   9
$$

OHZ009>014-019>023-028>033-038-089-130000-
   NORTHEAST OHIO

CITY           SKY/WX    TMP DP  RH WIND       PRES   REMARKS
CLE-HOPKINS    CLOUDY    20   6  55 NW20G31   29.87R WCI   4
CLE-LAKEFRONT  FLURRIES  21   7  54 NW25G39   29.84R WCI   4
CUY CO. ARPT   MOCLDY    19   1  45 NW14      29.82R WCI   6
LORAIN-ELYRIA  FLURRIES  18   6  59 NW13G26   29.86R WCI   5
ASHTABULA      CLOUDY    17   3  54 NW13G25   29.79R WCI   4
AKRON-CANTON   FLURRIES  17   8  67 NW13      29.81R WCI   4
WOOSTER        PTCLDY    15   5  64 W12       29.84R WCI   2
MANSFIELD      FLURRIES  17   3  54 NW9G18    29.85R WCI   6
YOUNGSTOWN     PTCLDY    15   4  61 W8        29.77R WCI   4
$$

OHZ042-051>053-060>062-070>072-077>081-130000-
  SOUTHWEST OHIO

CITY           SKY/WX    TMP DP  RH WIND       PRES   REMARKS
CINC-COVINGTON PTCLDY    24  10  55 NW10      29.98R WCI  14
CINC-LUNKEN    MOCLDY    27   8  44 W14       30.01R WCI  16
HAMILTON       MOCLDY    26  10  50 NW15G23   29.99R WCI  14
DAYTON         PTCLDY    19  11  70 NW14      29.95R WCI   6
WRIGHT-PAT AFB PTCLDY    21  10  62 W13       29.95R WCI   9
DAYTON GENERAL CLOUDY    22  14  71 NW13G18   29.95R WCI  10
WILMINGTON     FLURRIES  22  17  81 NW16G22   29.93R WCI   8
$$

OHZ036-037-039>041-045>050-054>059-063>069-073>076-082>088-130000-
  CENTRAL AND SOUTHEAST OHIO

CITY           SKY/WX    TMP DP  RH WIND       PRES   REMARKS
COLUMBUS       CLOUDY    23  13  65 NW15      29.90R WCI  10
OSU AIRPORT    FLURRIES  21  16  81 NW12      29.91R WCI   9
BOLTON FIELD   LGT SNOW  21  16  79 NW8G18    29.92R WCI  12
RICKENBACK AFB LGT SNOW  21  17  83 NW13G22   29.92R WCI   9
NEWARK         CLOUDY    23   7  50 NW14G24   29.88R WCI  11
MARION         NOT AVBL
LANCASTER      LGT SNOW  22  16  78 NW14      29.91R WCI   9
ZANESVILLE     CLOUDY    22   7  52 NW18      29.87R WCI   7
NEW PHILLY     NOT AVBL
$$




USA.gov is the U.S. government's official web portal to all federal, state and local government web resources and services.